This is the latest recevied weather packets stored in our database for station/object 7M1JBF-11. If no packets are shown the sender has not sent any weather packets the latest 10 day(s).
| Time | Temp. | Humidity | Pressure | Rain* | Wind** | Luminosity | Snow |
|---|---|---|---|---|---|---|---|
| 1778126055 | 26.67° C | 100% | 1011.6 hPa | 0.25 mm | - | - | - |
| 1778124853 | 26.67° C | 100% | 1011.8 hPa | 0.25 mm | - | - | - |
| 1778124251 | 26.67° C | 100% | 1011.5 hPa | 0.25 mm | - | - | - |
| 1778123650 | 27.22° C | 100% | 1011.9 hPa | 0.25 mm | - | - | - |
| 1778123048 | 27.22° C | 100% | 1012 hPa | 0.25 mm | - | - | - |
| 1778122447 | 27.78° C | 100% | 1012.1 hPa | 0.25 mm | - | - | - |
| 1778121846 | 28.33° C | 100% | 1012.1 hPa | 0.25 mm | - | - | - |
| 1778121244 | 28.89° C | 100% | 1012.4 hPa | 0.25 mm | - | - | - |
| 1778120643 | 29.44° C | 100% | 1012.4 hPa | 0.25 mm | - | - | - |
| 1778120042 | 30.56° C | 100% | 1012.6 hPa | 0.25 mm | - | - | - |
| 1778119440 | 31.11° C | 100% | 1012.5 hPa | 0.25 mm | - | - | - |
| 1778118839 | 31.11° C | 100% | 1012.5 hPa | 0.25 mm | - | - | - |
| 1778118237 | 31.11° C | 100% | 1012.7 hPa | 0.25 mm | - | - | - |
| 1778117636 | 31.11° C | 100% | 1012.7 hPa | 0.25 mm | - | - | - |
| 1778117035 | 31.67° C | 100% | 1013 hPa | 0.25 mm | - | - | - |
| 1778116433 | 31.11° C | 100% | 1013 hPa | 0.25 mm | - | - | - |
| 1778115832 | 31.11° C | 100% | 1012.9 hPa | 0.25 mm | - | - | - |
| 1778115231 | 31.11° C | 100% | 1013.2 hPa | 0.25 mm | - | - | - |
| 1778114629 | 30.56° C | 100% | 1013.3 hPa | 0.25 mm | - | - | - |
| 1778114028 | 30° C | 100% | 1013.3 hPa | 0.25 mm | - | - | - |
| 1778113427 | 29.44° C | 100% | 1013.5 hPa | 0.25 mm | - | - | - |
| 1778112825 | 28.89° C | 100% | 1013.6 hPa | 0.25 mm | - | - | - |
| 1778112224 | 28.33° C | 100% | 1013.6 hPa | 0.25 mm | - | - | - |
| 1778111622 | 28.33° C | 100% | 1013.7 hPa | 0.25 mm | - | - | - |
| 1778111021 | 27.78° C | 100% | 1013.9 hPa | 0.25 mm | - | - | - |
* Rain since midnight (hover to see other rain measurements)
** Current wind speed in m/s (hover to see current wind gust speed)